FW7492 Weather Reports


time (UTC)temp
C
wind
direction
speed
KPH
gust
KPH
rain 1hr
cm
rain 24hr
cm
rain mn
cm
humidity
%
barometer
mb
20260503200051 15 88 4.8 24.1 0.00 0.00 0.00 36 1008.1
20260503194607 15 98 11.3 45.1 0.00 0.00 0.00 35 1008.3
20260503193051 15 277 17.7 30.6 0.00 0.00 0.00 36 1009.0
20260503191558 15 340 17.7 35.4 0.00 0.00 0.00 35 1009.2
20260503190059 15 113 12.9 30.6 0.00 0.00 0.00 35 1009.4
20260503184555 15 157 4.8 20.9 0.00 0.00 0.00 36 1009.4
20260503183101 13 113 12.9 30.6 0.00 0.00 0.00 39 1009.6
20260503181553 13 108 9.7 27.4 0.00 0.00 0.00 36 1009.8
20260503180105 13 109 11.3 27.4 0.00 0.00 0.00 37 1010.1
20260503174551 14 256 3.2 20.9 0.00 0.00 0.00 37 1010.3
20260503173147 13 266 3.2 20.9 0.00 0.00 0.00 37 1010.7
20260503171553 13 84 8.0 29.0 0.00 0.00 0.00 37 1011.1
20260503130104 6 107 4.8 12.9 0.00 0.00 0.00 62 1012.5
20260503100113 4 98 1.6 8.0 0.00 0.00 0.00 69 1011.4
20260503090104 4 117 1.6 4.8 0.00 0.00 0.00 69 1011.7
20260503081558 5 0 0.0 6.4 0.00 0.00 0.00 68 1011.4
20260503071551 5 0 0.0 1.6 0.00 0.00 0.00 70 1011.3
20260503054550 6 0 0.0 0.0 0.00 0.00 0.00 67 1011.7
20260503053052 6 0 0.0 0.0 0.00 0.00 0.00 71 1011.8
20260503051551 6 0 0.0 0.0 0.00 0.00 0.00 71 1011.8
20260503050051 6 0 0.0 1.6 0.00 0.00 0.00 70 1011.7
20260503044553 6 0 0.0 0.0 0.00 0.00 0.00 67 1011.7
20260503043049 7 0 0.0 1.6 0.00 0.00 0.00 66 1011.7
20260503041549 7 0 0.0 1.6 0.00 0.00 0.00 64 1011.6
20260503040052 7 0 0.0 1.6 0.00 0.00 0.00 63 1011.7
20260503034552 7 0 0.0 1.6 0.00 0.00 0.00 58 1011.7
20260503033051 7 0 0.0 0.0 0.00 0.00 0.00 54 1011.7
20260503031607 8 0 0.0 1.6 0.00 0.00 0.00 52 1011.8
20260503030054 8 0 0.0 1.6 0.00 0.00 0.00 52 1011.8
20260503024550 8 0 0.0 1.6 0.00 0.00 0.00 52 1011.7
20260503023055 8 0 0.0 1.6 0.00 0.00 0.00 51 1011.6
20260503021555 8 0 0.0 1.6 0.00 0.00 0.00 51 1011.5
20260503020059 8 262 1.6 8.0 0.00 0.00 0.00 51 1011.5
20260503014555 8 262 0.0 8.0 0.00 0.00 0.00 50 1011.4
20260503013056 8 256 0.0 11.3 0.00 0.00 0.00 49 1011.3
20260503011605 8 272 3.2 9.7 0.00 0.00 0.00 47 1011.0
20260503010052 9 167 3.2 12.9 0.00 0.00 0.00 47 1010.8
20260503004614 10 338 4.8 11.3 0.00 0.00 0.00 46 1010.8
20260503003053 10 76 4.8 12.9 0.00 0.00 0.00 44 1010.5
20260503001554 10 273 1.6 12.9 0.00 0.00 0.00 42 1010.3
20260503000108 11 319 3.2 14.5 0.00 0.00 0.00 41 1010.1
20260502234553 10 281 1.6 19.3 0.00 0.00 0.00 41 1010.2
20260502233056 11 0 0.0 12.9 0.00 0.00 0.00 40 1010.0
20260502231618 11 121 4.8 12.9 0.00 0.00 0.00 39 1010.0
20260502230054 11 87 11.3 24.1 0.00 0.00 0.00 38 1009.9
20260502224557 11 98 3.2 14.5 0.00 0.00 0.00 39 1009.8
20260502223053 11 318 3.2 19.3 0.00 0.00 0.00 39 1009.8
20260502221554 11 311 12.9 25.7 0.00 0.00 0.00 39 1009.8
20260502220053 11 160 8.0 27.4 0.00 0.00 0.00 38 1009.6
20260502214552 11 131 3.2 20.9 0.00 0.00 0.00 37 1009.5
20260502213051 12 360 4.8 24.1 0.00 0.00 0.00 36 1009.4
20260502211551 12 133 4.8 17.7 0.00 0.00 0.00 36 1009.4
20260502210048 11 0 3.2 16.1 0.00 0.00 0.00 37 1009.3
20260502204552 11 20 4.8 35.4 0.00 0.00 0.00 37 1009.3
20260502203049 11 307 8.0 32.2 0.00 0.00 0.00 37 1009.4
20260502201556 12 0 4.8 19.3 0.00 0.00 0.00 37 1009.3